Abilene, TX

10:55 PM CDT on May 22, 2017 (GMT -0500)
Abilene Regional

Weather History for KABI - June, 2014

Change the Weather History Date:

Friday, June 27, 2014

  Actual Average Record
Temperature  
Mean Temperature 83 °F 81 °F  
Max Temperature 92 °F 92 °F 109 °F (1994)
Min Temperature 74 °F 70 °F 56 °F (2006)
Degree Days  
Heating Degree Days 0 0  
Month to date heating degree days 0 0  
Since 1 June heating degree days 0 0  
Since 1 July heating degree days 2821 2558  
Cooling Degree Days 18 16  
Month to date cooling degree days 403 385  
Year to date cooling degree days 917 782  
Since 1 June cooling degree days 403 385  
Growing Degree Days 32 (Base 50)    
Moisture  
Dew Point 67 °F    
Average Humidity 64    
Maximum Humidity 84    
Minimum Humidity 44    
Precipitation  
Precipitation 0.05 in 0.08 in 2.87 in (2007)
Month to date precipitation 3.75 3.31  
Year to date precipitation 7.74 12.25  
Sea Level Pressure  
Sea Level Pressure 29.74 in    
Wind  
Wind Speed 20 mph (South)    
Max Wind Speed 32 mph    
Max Gust Speed 40 mph    
Visibility 10 miles    
Events      
T = Trace of Precipitation, MM = Missing Value Source: NWS Daily Summary

Daily Weather History Graph

Daily Weather History Graph

Search for Another Location

Airport or City:

Trip Planner

Search our weather history database for the weather conditions in past years. The results will help you decide how hot, cold, wet, or windy it might be!

Date:

Astronomy

Jun. 27, 2014 Rise Set
Actual Time 6:33 AM CDT 8:49 PM CDT
Civil Twilight 6:05 AM CDT 9:18 PM CDT
Nautical Twilight 5:30 AM CDT 9:52 PM CDT
Astronomical Twilight 4:52 AM CDT 10:30 PM CDT
Moon 7:00 AM CDT (6/27) 9:02 PM CDT (6/27)
Length of Visible Light 15h 12m
Length of Day
14h 16m
New Moon, 0% of the Moon is Illuminated
Jun 27
New Moon
Jul 5
First Quarter
Jul 12
Full
Jul 18
Last Quarter
Jul 26
New

Hourly Weather History & Observations

Time (CDT) Temp. Heat Index Dew Point Humidity Pressure Visibility Wind Dir Wind Speed Gust Speed Precip Events Conditions
12:52 AM 78.1 °F - 66.9 °F 68% 29.78 in 10.0 mi SSE 17.3 mph 26.5 mph N/A   Clear
1:52 AM 75.9 °F - 68.0 °F 76% 29.85 in 10.0 mi South 17.3 mph - N/A   Clear
2:52 AM 75.0 °F - 68.0 °F 79% 29.76 in 10.0 mi South 16.1 mph - N/A   Clear
3:52 AM 73.9 °F - 68.0 °F 82% 29.75 in 10.0 mi South 15.0 mph - N/A   Clear
4:52 AM 73.9 °F - 68.0 °F 82% 29.75 in 10.0 mi South 11.5 mph - N/A   Partly Cloudy
5:29 AM 73.9 °F - 68.0 °F 82% 29.83 in 10.0 mi South 15.0 mph - N/A   Mostly Cloudy
5:41 AM 73.4 °F - 68.0 °F 83% 29.83 in 10.0 mi South 13.8 mph 24.2 mph N/A   Scattered Clouds
5:52 AM 73.9 °F - 68.0 °F 82% 29.75 in 10.0 mi South 13.8 mph - N/A   Partly Cloudy
6:52 AM 73.9 °F - 68.0 °F 82% 29.76 in 10.0 mi South 16.1 mph 25.3 mph N/A   Partly Cloudy
7:06 AM 75.0 °F - 68.0 °F 79% 29.84 in 10.0 mi South 16.1 mph - N/A   Mostly Cloudy
7:49 AM 75.2 °F - 68.0 °F 78% 29.83 in 10.0 mi South 16.1 mph 24.2 mph N/A   Scattered Clouds
7:52 AM 75.9 °F - 68.0 °F 76% 29.75 in 10.0 mi South 16.1 mph - N/A   Partly Cloudy
8:52 AM 79.0 °F - 68.0 °F 69% 29.76 in 10.0 mi South 21.9 mph 27.6 mph N/A   Partly Cloudy
9:41 AM 80.1 °F 82.7 °F 68.0 °F 67% 29.85 in 10.0 mi South 20.7 mph 33.4 mph N/A   Mostly Cloudy
9:52 AM 80.1 °F 82.7 °F 68.0 °F 67% 29.77 in 10.0 mi South 25.3 mph 35.7 mph N/A   Mostly Cloudy
10:52 AM 82.0 °F 84.5 °F 66.9 °F 60% 29.75 in 10.0 mi South 23.0 mph 35.7 mph N/A   Scattered Clouds
11:52 AM 84.0 °F 86.5 °F 66.9 °F 56% 29.76 in 10.0 mi South 25.3 mph 36.8 mph N/A   Partly Cloudy
2:52 PM 89.1 °F 91.3 °F 66.0 °F 46% 29.70 in 10.0 mi South 27.6 mph 35.7 mph N/A   Clear
3:52 PM 91.0 °F 94.3 °F 66.9 °F 45% 29.69 in 10.0 mi SSW 24.2 mph 34.5 mph N/A   Clear
4:52 PM 90.0 °F 92.8 °F 66.9 °F 46% 29.68 in 10.0 mi South 20.7 mph 33.4 mph N/A   Clear
5:52 PM 89.1 °F 91.3 °F 66.0 °F 46% 29.66 in 10.0 mi South 16.1 mph 31.1 mph N/A   Clear
6:52 PM 91.0 °F 93.8 °F 66.0 °F 44% 29.64 in 10.0 mi South 20.7 mph 28.8 mph N/A   Clear
7:52 PM 88.0 °F 90.3 °F 66.0 °F 48% 29.65 in 10.0 mi SSE 20.7 mph 32.2 mph N/A   Clear
8:52 PM 86.0 °F 88.2 °F 66.0 °F 51% 29.65 in 10.0 mi SSE 18.4 mph 26.5 mph N/A   Clear
9:52 PM 84.2 °F 85.6 °F 64.4 °F 51% 29.66 in 10.0 mi SSE 24.2 mph 33.4 mph N/A   Clear
10:52 PM 82.9 °F 85.4 °F 66.9 °F 58% 29.68 in 10.0 mi SSE 24.2 mph 33.4 mph N/A   Clear
11:52 PM 82.0 °F 85.5 °F 69.1 °F 65% 29.70 in 10.0 mi SSE 25.3 mph 34.5 mph N/A   Clear